Location: Beaver Brook Trail
(44.0290°N, 71.8137°W)
Time: 02:19:18
(UTC+00:00)

SR - Pass Details

Date: 21 November 2024
Orbit: 573 x 858 km, 66.7° (Epoch: 03 December)

Event Time Altitude Azimuth Distance (km) Brightness Sun altitude
Exits shadow 10:04:46 19° 332° (NNW) 1,795 ? -18.8°
Maximum altitude 10:08:43 79° 58° (ENE) 824 ? -18.1°
Drops below altitude 10° 10:14:23 10° 145° (SE) 2,443 ? -17.1°
Sets 10:16:54 0° 146° (SSE) 3,395 ? -16.7°
